FW1847 Weather Reports


time (UTC)temp
C
wind
direction
speed
KPH
gust
KPH
rain 1hr
cm
rain 24hr
cm
rain mn
cm
humidity
%
barometer
mb
20191020100706 11 153 3.2 8.0 0.00 0.25 0.05 97 1008.9
20191020100206 12 143 3.2 6.4 0.00 0.25 0.05 97 1008.9
20191020100100 11 142 1.6 6.4 0.00 0.25 0.05 97 1009.2
20191020095705 11 157 1.6 6.4 0.00 0.25 0.05 97 1009.0
20191020095205 11 143 1.6 6.4 0.00 0.25 0.05 97 1009.1
20191020094705 11 152 3.2 6.4 0.00 0.25 0.05 97 1009.1
20191020094549 11 152 3.2 6.4 0.00 0.25 0.05 97 1009.4
20191020094206 11 170 3.2 6.4 0.00 0.25 0.05 97 1009.1
20191020093705 11 170 3.2 8.0 0.00 0.25 0.05 97 1009.1
20191020093217 11 170 3.2 8.0 0.00 0.25 0.05 97 1009.4
20191020093206 11 168 3.2 8.0 0.00 0.25 0.05 97 1009.1
20191020092706 11 151 3.2 9.7 0.00 0.25 0.05 97 1009.0
20191020092207 11 153 3.2 9.7 0.00 0.25 0.05 97 1009.0
20191020091558 11 157 3.2 9.7 0.00 0.25 0.05 97 1009.1
20191020091205 11 180 3.2 6.4 0.00 0.25 0.05 97 1008.8
20191020090705 11 141 3.2 6.4 0.00 0.25 0.05 97 1008.7
20191020090205 11 155 3.2 8.0 0.00 0.25 0.05 97 1008.7
20191020090144 11 151 1.6 6.4 0.00 0.25 0.05 98 1009.0
20191020085705 11 167 3.2 8.0 0.00 0.25 0.05 98 1008.8
20191020085205 11 134 3.2 8.0 0.00 0.25 0.05 97 1008.7
20191020084706 11 151 3.2 8.0 0.00 0.25 0.05 98 1008.7
20191020084607 11 142 3.2 8.0 0.00 0.25 0.05 98 1009.1
20191020084205 11 143 4.8 8.0 0.00 0.25 0.05 98 1008.8
20191020083705 11 149 3.2 8.0 0.00 0.25 0.05 98 1008.7
20191020083206 11 166 3.2 9.7 0.00 0.25 0.05 98 1008.7
20191020083034 11 162 1.6 6.4 0.00 0.25 0.05 98 1008.9
20191020082706 11 147 3.2 9.7 0.00 0.25 0.05 98 1008.7
20191020082206 11 185 3.2 6.4 0.00 0.25 0.05 98 1008.8
20191020081706 11 194 3.2 6.4 0.00 0.25 0.05 98 1008.6
20191020081528 10 207 1.6 6.4 0.00 0.25 0.05 98 1008.8
20191020081205 11 174 1.6 6.4 0.00 0.25 0.05 98 1008.5
20191020080705 11 162 1.6 6.4 0.00 0.25 0.05 98 1008.5
20191020080205 10 149 1.6 6.4 0.00 0.25 0.05 98 1008.3
20191020080018 10 145 1.6 6.4 0.00 0.25 0.05 98 1008.6
20191020075705 10 164 3.2 6.4 0.00 0.25 0.05 98 1008.4
20191020075206 10 170 1.6 6.4 0.00 0.25 0.05 98 1008.4
20191020074705 10 146 3.2 6.4 0.03 0.25 0.05 98 1008.3
20191020074205 10 117 3.2 4.8 0.03 0.25 0.05 98 1008.2
20191020073706 10 155 1.6 4.8 0.03 0.25 0.05 98 1008.2
20191020073205 10 155 1.6 3.2 0.03 0.25 0.05 98 1008.1
20191020073138 10 155 1.6 3.2 0.03 0.25 0.05 98 1008.4
20191020072705 10 155 1.6 3.2 0.03 0.25 0.05 98 1008.0
20191020072206 10 155 0.0 3.2 0.03 0.25 0.05 98 1008.1
20191020071705 10 155 0.0 3.2 0.03 0.25 0.05 98 1008.2
20191020071642 9 155 0.0 3.2 0.03 0.25 0.05 98 1008.5
20191020071205 9 155 0.0 1.6 0.03 0.25 0.05 98 1008.3
20191020070705 9 155 0.0 1.6 0.03 0.25 0.05 98 1008.3
20191020070205 9 155 0.0 3.2 0.03 0.25 0.05 98 1008.2
20191020070059 9 155 0.0 1.6 0.03 0.25 0.05 98 1008.5
20191020065705 9 155 1.6 4.8 0.03 0.25 0.05 98 1008.2
20191020065205 9 155 1.6 4.8 0.03 0.25 0.05 98 1008.1
20191020064705 9 155 1.6 4.8 0.00 0.23 0.03 98 1008.2
20191020064610 9 155 1.6 4.8 0.00 0.23 0.03 98 1008.5
20191020064207 9 155 1.6 6.4 0.00 0.23 0.03 98 1008.1
20191020063706 9 155 3.2 6.4 0.00 0.23 0.03 98 1008.1
20191020063206 9 159 3.2 6.4 0.00 0.23 0.03 98 1008.1
20191020062705 9 140 3.2 6.4 0.00 0.23 0.03 98 1007.9
20191020062206 9 136 1.6 6.4 0.00 0.23 0.03 98 1007.7
20191020061705 9 135 3.2 6.4 0.00 0.23 0.03 98 1007.7
20191020061205 9 130 3.2 6.4 0.00 0.23 0.03 98 1007.7
20191020060705 9 141 3.2 6.4 0.00 0.23 0.03 98 1007.6
20191020060205 9 151 3.2 4.8 0.00 0.23 0.03 98 1007.6
20191020055705 9 133 3.2 4.8 0.00 0.23 0.03 98 1007.6
20191020055205 9 146 3.2 4.8 0.00 0.23 0.03 98 1007.4
20191020054706 9 136 1.6 4.8 0.00 0.23 0.03 98 1007.3
20191020054205 9 178 1.6 4.8 0.00 0.23 0.03 98 1007.4
20191020053705 9 178 1.6 4.8 0.00 0.23 0.03 98 1007.5
20191020053206 9 149 1.6 6.4 0.00 0.23 0.03 98 1007.3
20191020052705 9 149 3.2 6.4 0.00 0.23 0.03 98 1007.1
20191020052206 9 142 3.2 4.8 0.00 0.23 0.03 98 1007.1
20191020051706 9 153 3.2 4.8 0.00 0.23 0.03 98 1006.9
20191020051206 9 139 1.6 4.8 0.00 0.23 0.03 98 1006.9
20191020050705 8 126 1.6 4.8 0.00 0.23 0.03 98 1006.8
20191020050206 8 124 1.6 4.8 0.00 0.23 0.03 98 1006.9
20191020045705 8 138 3.2 4.8 0.00 0.23 0.03 98 1007.0
20191020045206 8 151 1.6 6.4 0.00 0.23 0.03 98 1007.0
20191020044707 8 151 1.6 6.4 0.00 0.23 0.03 98 1007.0
20191020044205 8 143 3.2 6.4 0.00 0.23 0.03 98 1007.0
20191020043705 8 161 3.2 6.4 0.00 0.23 0.03 98 1007.0
20191020043205 8 128 3.2 6.4 0.00 0.23 0.03 98 1006.9
20191020042706 8 155 3.2 6.4 0.00 0.23 0.03 98 1007.1
20191020042205 8 147 3.2 6.4 0.00 0.23 0.03 98 1007.1
20191020041705 8 152 3.2 6.4 0.00 0.23 0.03 98 1007.1
20191020041206 8 147 3.2 4.8 0.00 0.23 0.03 98 1007.0
20191020040705 8 154 3.2 4.8 0.00 0.23 0.03 98 1006.9
20191020040206 8 163 3.2 4.8 0.00 0.23 0.03 98 1006.9
20191020035705 8 136 3.2 4.8 0.00 0.23 0.03 98 1006.9
20191020035206 8 136 1.6 4.8 0.00 0.23 0.03 98 1006.9
20191020034706 8 136 1.6 4.8 0.00 0.23 0.03 98 1006.9
20191020034205 8 128 3.2 4.8 0.00 0.23 0.03 98 1006.8
20191020033706 8 128 1.6 3.2 0.00 0.23 0.03 98 1006.7
20191020033206 8 119 1.6 3.2 0.00 0.23 0.03 98 1006.6
20191020032705 8 119 0.0 3.2 0.00 0.23 0.03 98 1006.6
20191020032206 8 119 0.0 3.2 0.00 0.23 0.03 98 1006.5
20191020031706 8 119 0.0 1.6 0.00 0.23 0.03 98 1006.5
20191020031206 8 119 0.0 3.2 0.00 0.23 0.03 98 1006.4
20191020030706 8 119 0.0 3.2 0.00 0.23 0.03 98 1006.3
20191020030206 8 119 1.6 4.8 0.00 0.23 0.03 98 1006.3
20191020025705 8 119 1.6 4.8 0.00 0.23 0.03 97 1006.3
20191020025206 8 119 1.6 4.8 0.00 0.23 0.03 97 1006.3
20191020024706 8 148 1.6 4.8 0.00 0.23 0.03 97 1006.3
20191020024205 8 148 3.2 4.8 0.00 0.23 0.03 97 1006.4
20191020023705 8 133 3.2 4.8 0.00 0.23 0.03 97 1006.4
20191020023206 8 155 1.6 4.8 0.00 0.23 0.03 97 1006.4
20191020022705 8 188 1.6 3.2 0.00 0.23 0.03 97 1006.4
20191020022206 8 188 1.6 4.8 0.00 0.23 0.03 97 1006.3
20191020021705 8 188 1.6 4.8 0.00 0.23 0.03 97 1006.3
20191020021205 8 188 1.6 4.8 0.00 0.23 0.03 97 1006.3
20191020020706 8 188 1.6 4.8 0.00 0.23 0.03 98 1006.3
20191020020205 8 191 3.2 4.8 0.00 0.23 0.03 98 1006.3
20191020015706 8 175 3.2 4.8 0.00 0.23 0.03 97 1006.3
20191020015205 8 177 1.6 6.4 0.00 0.23 0.03 98 1006.3
20191020014706 8 177 1.6 6.4 0.00 0.23 0.03 98 1006.3
20191020014205 8 201 1.6 9.7 0.00 0.23 0.03 98 1006.3
20191020013705 8 170 3.2 9.7 0.00 0.23 0.03 98 1006.4
20191020013206 8 166 3.2 8.0 0.00 0.23 0.03 98 1006.4
20191020012705 8 148 3.2 6.4 0.00 0.23 0.03 98 1006.5
20191020012207 8 178 3.2 6.4 0.00 0.23 0.03 97 1006.4
20191020011706 9 170 3.2 6.4 0.00 0.23 0.03 98 1006.5
20191020011205 9 166 1.6 4.8 0.00 0.23 0.03 98 1006.5
20191020010705 9 227 1.6 6.4 0.00 0.23 0.03 97 1006.4
20191020010206 9 237 3.2 6.4 0.00 0.23 0.03 97 1006.3
20191020005705 9 209 3.2 11.3 0.00 0.23 0.03 97 1006.4
20191020005206 9 210 3.2 11.3 0.00 0.23 0.03 97 1006.4
20191020004705 9 175 4.8 11.3 0.00 0.23 0.03 97 1006.5
20191020004206 9 208 4.8 11.3 0.03 0.23 0.03 97 1006.4
20191020003706 9 182 4.8 11.3 0.03 0.23 0.03 97 1006.4
20191020003205 9 163 3.2 9.7 0.03 0.23 0.03 97 1006.4
20191020002705 9 188 4.8 9.7 0.03 0.23 0.03 97 1006.5
20191020002205 9 174 4.8 9.7 0.03 0.23 0.03 97 1006.5
20191020001706 9 178 3.2 11.3 0.03 0.23 0.03 97 1006.6
20191020001206 9 161 3.2 11.3 0.03 0.23 0.03 97 1006.5
20191020000705 9 155 4.8 11.3 0.03 0.23 0.03 97 1006.6
20191020000206 9 179 4.8 11.3 0.03 0.23 0.03 97 1006.7
20191019235705 9 191 4.8 9.7 0.03 0.23 0.03 97 1006.7
20191019235206 9 151 4.8 9.7 0.03 0.23 0.03 97 1006.6
20191019234705 9 179 4.8 9.7 0.03 0.23 0.03 97 1006.4
20191019234206 9 174 4.8 9.7 0.00 0.23 0.00 97 1006.4
20191019233705 9 147 3.2 9.7 0.00 0.23 0.00 97 1006.3
20191019233205 9 168 3.2 6.4 0.00 0.23 0.00 97 1006.2
20191019232706 9 151 3.2 6.4 0.00 0.23 0.00 97 1006.2
20191019232206 9 167 3.2 6.4 0.00 0.23 0.00 97 1006.2
20191019231706 9 178 3.2 6.4 0.00 0.23 0.00 97 1006.2
20191019231205 9 157 3.2 8.0 0.00 0.23 0.00 97 1006.2
20191019230706 9 169 3.2 8.0 0.00 0.23 0.00 97 1006.2
20191019230008 9 161 3.2 8.0 0.00 0.23 0.00 97 1006.4
20191019225705 9 157 3.2 6.4 0.00 0.23 0.00 97 1006.0
20191019225206 9 174 3.2 6.4 0.00 0.23 0.00 97 1005.9
20191019224705 9 161 3.2 6.4 0.00 0.23 0.00 97 1005.9
20191019224623 8 150 1.6 6.4 0.00 0.23 0.00 97 1006.2
20191019224206 9 157 3.2 9.7 0.00 0.23 0.00 97 1005.9
20191019223705 9 162 3.2 9.7 0.00 0.23 0.00 97 1005.9
20191019223205 9 174 4.8 9.7 0.00 0.23 0.00 97 1005.8
20191019223116 9 168 3.2 9.7 0.00 0.23 0.00 97 1006.1
20191019222706 9 164 4.8 6.4 0.00 0.23 0.00 97 1005.8
20191019222206 9 164 3.2 6.4 0.00 0.23 0.00 97 1005.8
20191019221705 9 206 3.2 9.7 0.00 0.23 0.00 97 1005.8
20191019221543 9 182 3.2 6.4 0.00 0.23 0.00 97 1006.1
20191019221206 9 182 4.8 9.7 0.00 0.23 0.00 97 1005.9
20191019220705 10 166 4.8 14.5 0.00 0.23 0.00 97 1005.9
20191019220206 10 165 4.8 14.5 0.00 0.23 0.23 97 1006.0
20191019220017 9 164 3.2 12.9 0.00 0.23 0.00 97 1006.3
20191019215705 10 178 4.8 14.5 0.00 0.23 0.23 97 1006.0
20191019215205 10 184 4.8 11.3 0.00 0.23 0.23 97 1005.8
20191019214706 10 159 4.8 11.3 0.00 0.23 0.23 97 1005.8
20191019214205 10 166 4.8 11.3 0.00 0.23 0.23 97 1005.8
20191019213705 10 167 4.8 11.3 0.00 0.23 0.23 97 1005.8
20191019213205 10 178 4.8 9.7 0.00 0.23 0.23 97 1005.9
20191019212706 10 181 4.8 9.7 0.00 0.23 0.23 97 1005.8
20191019212206 10 188 4.8 11.3 0.00 0.23 0.23 97 1005.8
20191019211705 10 178 4.8 11.3 0.00 0.23 0.23 97 1005.8
20191019211205 10 172 4.8 11.3 0.00 0.23 0.23 97 1005.7
20191019210706 10 147 4.8 9.7 0.00 0.23 0.23 97 1005.7
20191019210206 10 172 4.8 9.7 0.00 0.23 0.23 97 1005.7
20191019205705 10 188 4.8 9.7 0.00 0.23 0.23 97 1005.5
20191019205206 10 172 6.4 11.3 0.00 0.23 0.23 97 1005.5
20191019204706 10 149 6.4 11.3 0.00 0.23 0.23 97 1005.3
20191019204205 10 174 4.8 11.3 0.00 0.23 0.23 97 1005.3
20191019203706 10 174 4.8 9.7 0.00 0.23 0.23 97 1005.3
20191019203206 10 173 3.2 9.7 0.00 0.23 0.23 97 1005.3
20191019202705 10 178 4.8 8.0 0.00 0.23 0.23 97 1005.2
20191019202205 10 168 4.8 9.7 0.00 0.23 0.23 97 1005.2
20191019201706 10 149 4.8 9.7 0.00 0.23 0.23 97 1005.2
20191019201206 10 160 4.8 9.7 0.00 0.23 0.23 97 1005.2
20191019200706 10 170 3.2 6.4 0.00 0.23 0.23 97 1005.1
20191019200205 10 168 3.2 6.4 0.00 0.23 0.23 97 1004.9
20191019195705 10 180 3.2 6.4 0.00 0.23 0.23 97 1004.9
20191019195206 10 178 3.2 6.4 0.00 0.23 0.23 97 1004.8
20191019194706 10 169 3.2 6.4 0.00 0.23 0.23 97 1004.7
20191019194206 11 159 3.2 6.4 0.00 0.23 0.23 97 1004.6
20191019193706 11 143 3.2 9.7 0.00 0.23 0.23 97 1004.7
20191019193206 11 187 3.2 9.7 0.00 0.23 0.23 97 1004.7
20191019192706 11 147 3.2 9.7 0.00 0.23 0.23 97 1004.7
20191019192221 11 159 3.2 4.8 0.03 0.23 0.23 97 1004.6
20191019191705 11 165 3.2 4.8 0.03 0.23 0.23 97 1004.6
20191019191205 11 168 3.2 4.8 0.03 0.23 0.23 97 1004.5
20191019190706 11 185 1.6 4.8 0.03 0.23 0.23 97 1004.5
20191019190206 11 199 1.6 6.4 0.03 0.23 0.23 97 1004.5
20191019185705 11 207 1.6 6.4 0.03 0.23 0.23 97 1004.5
20191019185205 11 202 3.2 6.4 0.03 0.23 0.23 97 1004.5
20191019184705 11 178 3.2 6.4 0.03 0.23 0.23 97 1004.4
20191019184205 11 173 3.2 6.4 0.03 0.23 0.23 96 1004.2
20191019183705 11 164 3.2 6.4 0.03 0.23 0.23 96 1004.1
20191019183205 11 175 3.2 6.4 0.03 0.23 0.23 96 1004.2
20191019182706 11 195 3.2 6.4 0.03 0.23 0.23 96 1004.2
20191019182206 11 201 3.2 6.4 0.00 0.20 0.20 96 1004.0
20191019181706 11 175 1.6 6.4 0.00 0.20 0.20 96 1003.6
20191019181538 11 178 3.2 6.4 0.00 0.20 0.20 96 1004.0
20191019181206 11 189 3.2 6.4 0.00 0.20 0.20 96 1003.7
20191019180706 11 161 3.2 6.4 0.00 0.20 0.20 96 1003.8
20191019180206 11 162 3.2 9.7 0.00 0.20 0.20 96 1003.7
20191019180025 11 174 3.2 6.4 0.00 0.20 0.20 96 1004.0
20191019175705 11 180 3.2 9.7 0.00 0.20 0.20 96 1003.6
20191019175206 11 170 4.8 9.7 0.00 0.20 0.20 96 1003.6
20191019174706 11 168 4.8 9.7 0.00 0.20 0.20 96 1003.6
20191019174507 11 174 3.2 9.7 0.00 0.20 0.20 96 1004.0
20191019174206 11 160 3.2 6.4 0.00 0.20 0.20 96 1003.7
20191019173705 11 178 3.2 9.7 0.00 0.20 0.20 96 1003.7
20191019173220 11 150 3.2 9.7 0.00 0.20 0.20 96 1003.6
20191019172706 11 168 4.8 9.7 0.00 0.20 0.20 96 1004.5
20191019172206 11 170 4.8 11.3 0.00 0.20 0.20 96 1004.4
20191019171705 11 196 4.8 17.7 0.00 0.20 0.20 96 1004.3
20191019171205 12 197 4.8 17.7 0.00 0.20 0.20 96 1004.3
20191019170705 12 180 4.8 17.7 0.00 0.20 0.20 96 1004.3
20191019170206 12 180 4.8 14.5 0.00 0.20 0.20 96 1004.3
20191019165705 12 224 6.4 14.5 0.00 0.20 0.20 96 1004.3
20191019165205 12 174 6.4 11.3 0.00 0.20 0.20 96 1004.2
20191019164705 12 213 4.8 14.5 0.00 0.20 0.20 96 1004.2
20191019164205 12 188 4.8 14.5 0.00 0.20 0.20 96 1004.2
20191019163705 12 184 6.4 14.5 0.00 0.20 0.20 96 1004.2
20191019163206 12 182 6.4 11.3 0.00 0.20 0.20 95 1004.2
20191019162706 12 156 4.8 11.3 0.05 0.20 0.20 96 1004.1
20191019162205 12 160 4.8 11.3 0.08 0.20 0.20 95 1004.1
20191019161706 12 169 4.8 11.3 0.10 0.20 0.20 95 1004.0
20191019161205 12 169 4.8 11.3 0.10 0.20 0.20 95 1003.9
20191019160706 12 155 3.2 11.3 0.13 0.20 0.20 95 1003.8
20191019160206 12 182 4.8 11.3 0.15 0.20 0.20 95 1003.7
20191019155705 12 170 4.8 14.5 0.18 0.20 0.20 95 1003.6
20191019155205 12 185 4.8 14.5 0.18 0.20 0.20 95 1003.7
20191019154705 12 135 4.8 14.5 0.18 0.20 0.20 94 1003.7
20191019154205 12 188 4.8 17.7 0.18 0.20 0.20 94 1003.7
20191019153705 12 189 6.4 17.7 0.18 0.20 0.20 94 1003.7
20191019153206 12 163 6.4 17.7 0.15 0.18 0.18 94 1003.7
20191019152706 13 159 4.8 11.3 0.15 0.15 0.15 93 1003.6
20191019152206 13 139 4.8 11.3 0.10 0.13 0.13 93 1003.6
20191019151705 13 166 4.8 11.3 0.08 0.10 0.10 92 1003.6
20191019151205 13 127 4.8 11.3 0.08 0.10 0.10 92 1003.5
20191019150705 13 161 4.8 14.5 0.05 0.05 0.05 91 1003.6
20191019150206 13 140 6.4 17.7 0.03 0.05 0.03 90 1003.6
20191019145706 13 186 6.4 17.7 0.00 0.03 0.03 90 1003.6
20191019145206 13 154 6.4 22.5 0.00 0.03 0.03 90 1003.5
20191019144705 13 154 8.0 22.5 0.00 0.03 0.03 90 1003.5
20191019144205 13 134 6.4 22.5 0.00 0.03 0.03 91 1003.4
20191019143705 13 185 6.4 11.3 0.00 0.03 0.03 91 1003.5
20191019143206 13 159 6.4 14.5 0.00 0.03 0.03 92 1003.4
20191019142705 13 193 4.8 14.5 0.03 0.03 0.03 92 1003.4
20191019142206 13 166 4.8 14.5 0.03 0.03 0.03 93 1003.4
20191019141705 13 168 4.8 14.5 0.03 0.03 0.03 93 1003.4
20191019141205 13 178 4.8 14.5 0.03 0.03 0.03 93 1003.5
20191019140705 13 181 4.8 14.5 0.03 0.03 0.03 93 1003.5
20191019140206 13 189 6.4 17.7 0.03 0.03 0.03 93 1003.5
20191019135705 13 139 8.0 17.7 0.03 0.03 0.03 93 1003.6
20191019135206 13 149 8.0 17.7 0.03 0.03 0.03 93 1003.6
20191019134705 13 185 8.0 17.7 0.03 0.03 0.03 92 1003.5
20191019134205 13 168 8.0 17.7 0.03 0.03 0.03 92 1003.5
20191019133705 13 177 9.7 22.5 0.03 0.03 0.03 91 1003.5
20191019133206 13 182 9.7 22.5 0.00 0.00 0.00 89 1003.5
20191019132706 13 178 9.7 17.7 0.00 0.00 0.00 88 1003.6
20191019132206 13 168 9.7 17.7 0.00 0.00 0.00 88 1003.5
20191019131705 13 153 8.0 17.7 0.00 0.00 0.00 89 1003.6
20191019131205 13 145 8.0 29.0 0.00 0.00 0.00 88 1003.6
20191019130706 13 115 9.7 29.0 0.00 0.00 0.00 88 1003.6
20191019130205 13 207 14.5 29.0 0.00 0.00 0.00 86 1003.6
20191019125706 14 203 14.5 22.5 0.00 0.00 0.00 84 1003.6
20191019125206 14 197 14.5 24.1 0.00 0.00 0.00 83 1003.5
20191019124706 14 212 14.5 24.1 0.00 0.00 0.00 83 1003.5
20191019124205 14 181 11.3 24.1 0.00 0.00 0.00 83 1003.5
20191019123705 14 138 9.7 22.5 0.00 0.00 0.00 84 1003.6
20191019123205 14 147 11.3 22.5 0.00 0.00 0.00 84 1003.7
20191019122705 14 167 11.3 22.5 0.00 0.03 0.00 83 1003.7
20191019122206 14 168 11.3 22.5 0.00 0.05 0.00 83 1003.7
20191019121705 14 170 11.3 22.5 0.00 0.23 0.00 83 1003.7
20191019121205 14 165 9.7 32.2 0.00 0.28 0.00 83 1003.7
20191019120706 14 224 11.3 32.2 0.00 0.28 0.00 83 1003.6
20191019120205 14 168 14.5 32.2 0.00 0.28 0.00 82 1003.6
20191019115705 14 191 14.5 32.2 0.00 0.28 0.00 82 1003.7
20191019115205 14 166 14.5 32.2 0.00 0.28 0.00 82 1003.7
20191019114706 14 178 14.5 30.6 0.00 0.28 0.00 82 1003.8
20191019114206 14 161 14.5 29.0 0.00 0.28 0.00 82 1003.9
20191019113705 14 163 14.5 24.1 0.00 0.28 0.00 81 1003.8
20191019113206 14 161 11.3 27.4 0.00 0.28 0.00 82 1003.9
20191019112706 14 146 14.5 30.6 0.00 0.28 0.00 81 1003.9
20191019112208 14 164 14.5 30.6 0.00 0.28 0.00 81 1004.0
20191019111706 14 139 14.5 30.6 0.00 0.28 0.00 81 1004.0
20191019111206 14 176 11.3 29.0 0.00 0.28 0.00 82 1004.1
20191019110707 13 121 14.5 29.0 0.00 0.28 0.00 81 1004.0
20191019110206 13 139 14.5 24.1 0.00 0.30 0.00 81 1004.1
20191019105705 13 147 11.3 24.1 0.00 0.30 0.00 81 1004.2
20191019105206 13 176 11.3 24.1 0.00 0.30 0.00 81 1004.2
20191019104705 13 138 9.7 24.1 0.00 0.30 0.00 82 1004.4
20191019104205 13 178 11.3 25.7 0.00 0.30 0.00 82 1004.4
20191019103705 13 180 14.5 25.7 0.00 0.30 0.00 82 1004.4
20191019103206 13 172 11.3 25.7 0.00 0.30 0.00 82 1004.5
20191019102705 13 139 11.3 24.1 0.00 0.30 0.00 82 1004.6
20191019102206 13 180 11.3 25.7 0.00 0.30 0.00 81 1004.6
20191019101706 13 164 11.3 25.7 0.00 0.30 0.00 82 1004.6
20191019101205 13 164 11.3 25.7 0.00 0.30 0.00 82 1004.5